GFSNGP_850_temp_000.txt.gz
Temp
16 17 17 17 17 18 17 17 14 15 16 17 17 16 13 12 12 12 10 10 8 7 7 7 6 6 6 6 6 5 4 3 3 3 1 1 0 -1 -1 -2 -2 -2 -2 -3
12 17 17 15 16 17 17 18 17 17 16 17 14 13 12 11 10 10 9 8 7 7 6 7 6 6 6 5 5 5 3 3 3 1 1 0 -1 -1 -2 -2 -2 -2 -3 -3
12 12 11 11 13 17 17 17 16 14 16 15 13 12 12 10 9 8 7 7 6 6 7 6 5 5 5 5 5 5 4 4 2 0 -0 -0 -2 -2 -2 -2 -2 -3 -3 -3
9 8 11 16 17 17 16 17 17 17 15 13 11 11 11 8 7 7 6 6 6 6 6 5 5 5 4 4 3 3 3 4 1 1 -0 -1 -1 -2 -3 -2 -2 -3 -3 -4
9 11 13 14 15 14 13 13 15 14 12 11 10 10 9 7 6 6 6 6 6 6 5 5 4 4 3 2 2 3 3 2 1 -1 -1 -1 -2 -2 -3 -2 -3 -3 -4 -4
8 8 10 14 16 14 14 11 12 11 9 8 9 7 8 7 6 6 6 6 6 5 5 4 3 3 2 2 1 1 0 0 -1 -2 -2 -2 -2 -3 -2 -3 -3 -4 -4 -5
9 8 10 14 14 13 11 10 9 8 8 7 8 6 6 6 6 6 6 6 5 5 4 3 2 2 1 1 1 0 -1 -2 -2 -3 -3 -2 -2 -2 -3 -3 -3 -4 -5 -6
8 8 9 13 13 10 10 9 8 7 7 7 6 6 7 7 6 6 6 5 5 4 3 3 2 2 1 0 -0 -1 -2 -3 -3 -3 -2 -2 -2 -3 -3 -3 -4 -5 -6 -7
11 11 13 13 11 10 9 8 7 6 6 6 6 6 6 6 6 6 5 5 4 3 3 2 2 1 0 -0 -1 -2 -3 -3 -3 -2 -3 -3 -3 -3 -4 -4 -5 -5 -7 -8
11 13 14 13 11 8 7 7 7 6 6 6 6 6 6 6 6 5 5 4 3 2 2 2 1 0 -0 -1 -2 -3 -3 -4 -4 -3 -3 -3 -3 -4 -4 -5 -5 -6 -8 -9
12 13 13 10 8 7 6 7 6 6 6 6 6 6 6 5 5 4 4 3 2 2 2 1 0 -0 -2 -3 -3 -4 -4 -5 -4 -4 -4 -4 -4 -5 -5 -6 -6 -7 -8 -9
10 12 10 9 7 6 6 6 6 6 6 6 6 5 5 4 3 3 2 2 1 1 0 -0 -1 -2 -3 -4 -4 -4 -5 -5 -5 -5 -5 -5 -5 -5 -6 -7 -7 -8 -9 -9
12 9 8 6 6 6 6 7 6 5 5 5 5 4 3 2 2 1 1 0 -0 -1 -1 -2 -3 -3 -3 -4 -4 -5 -5 -5 -6 -6 -6 -6 -6 -6 -7 -8 -8 -9 -9 -9
9 7 7 6 7 6 6 6 5 5 5 4 3 2 2 1 0 -0 -1 -1 -2 -2 -2 -3 -4 -4 -4 -4 -5 -5 -5 -6 -6 -7 -7 -7 -7 -8 -8 -8 -8 -9 -9 -9
7 6 6 7 6 6 6 5 5 4 4 3 2 1 -0 -1 -1 -2 -2 -2 -3 -3 -3 -5 -5 -4 -5 -5 -5 -5 -6 -6 -6 -7 -8 -8 -8 -8 -9 -9 -9 -9 -9 -10
6 7 7 6 6 5 5 4 4 3 2 1 -0 -1 -2 -1 -2 -2 -2 -3 -3 -3 -4 -5 -5 -5 -5 -6 -6 -6 -6 -6 -7 -8 -8 -8 -8 -8 -9 -9 -9 -9 -9 -10
6 6 6 5 5 4 4 3 2 1 1 -0 -1 -1 -1 -1 -1 -2 -2 -3 -4 -4 -5 -6 -5 -5 -5 -6 -6 -6 -6 -6 -7 -8 -8 -8 -8 -9 -9 -9 -9 -9 -9 -10
6 5 4 4 3 3 2 2 1 0 -0 -1 -1 -1 -1 -2 -2 -2 -3 -3 -3 -5 -6 -5 -5 -5 -5 -6 -7 -7 -7 -8 -8 -8 -8 -8 -9 -9 -9 -9 -9 -9 -10 -10
4 4 3 2 2 1 1 1 0 -1 -1 -1 -1 -2 -2 -2 -2 -3 -3 -4 -5 -5 -5 -5 -5 -5 -5 -6 -6 -8 -8 -8 -9 -9 -8 -8 -9 -9 -9 -9 -9 -9 -10 -10
3 2 1 1 1 1 1 0 -1 -1 -1 -2 -2 -2 -2 -2 -2 -3 -5 -6 -5 -5 -5 -5 -5 -5 -6 -6 -6 -6 -8 -8 -9 -9 -8 -8 -8 -9 -9 -9 -9 -9 -10 -10
1 1 1 1 1 1 0 -1 -1 -1 -1 -2 -2 -2 -2 -2 -3 -6 -6 -6 -5 -5 -5 -5 -5 -5 -5 -6 -7 -7 -8 -9 -9 -9 -8 -8 -8 -9 -9 -9 -9 -9 -9 -10
1 1 1 1 0 0 -1 -1 -1 -2 -2 -2 -2 -3 -3 -3 -6 -6 -6 -6 -5 -5 -5 -5 -5 -5 -5 -6 -7 -7 -7 -9 -9 -9 -9 -9 -8 -8 -9 -9 -9 -10 -10 -10
1 1 0 0 -0 -1 -1 -1 -1 -2 -2 -2 -3 -3 -5 -5 -6 -6 -6 -6 -6 -5 -6 -5 -6 -6 -6 -6 -6 -7 -7 -8 -9 -9 -9 -9 -9 -9 -10 -10 -10 -10 -11 -11
0 -0 -1 -1 -1 -1 -1 -1 -2 -2 -2 -3 -3 -4 -5 -5 -5 -6 -6 -6 -6 -6 -6 -6 -6 -6 -6 -6 -6 -7 -7 -8 -8 -9 -9 -9 -9 -9 -9 -10 -10 -10 -10 -11
-1 -1 -1 -1 -2 -2 -2 -2 -2 -2 -2 -3 -4 -4 -5 -5 -6 -6 -6 -7 -7 -6 -6 -6 -6 -6 -6 -6 -6 -6 -7 -8 -9 -9 -9 -10 -10 -10 -9 -10 -10 -10 -10 -11
-1 -2 -2 -2 -2 -2 -2 -2 -2 -2 -3 -3 -4 -4 -5 -6 -6 -6 -6 -7 -7 -6 -6 -6 -6 -6 -6 -6 -6 -6 -7 -7 -8 -9 -9 -9 -9 -9 -10 -10 -10 -10 -10 -11
-2 -2 -2 -2 -2 -2 -2 -2 -3 -3 -3 -4 -5 -6 -6 -7 -7 -7 -7 -7 -7 -7 -6 -6 -6 -6 -6 -6 -6 -6 -7 -7 -8 -9 -9 -9 -9 -9 -9 -9 -9 -9 -9 -9

GFSNGP_850_temp_003.txt.gz
Temp
13 14 15 16 15 15 15 13 10 11 13 11 10 11 11 10 10 9 8 7 7 7 6 6 6 6 5 5 5 5 4 3 3 3 2 1 0 -1 -2 -1 -2 -2 -2 -2
11 13 12 12 12 12 14 15 14 15 12 12 12 11 10 9 8 7 7 6 6 6 6 6 5 5 4 4 4 3 3 3 2 2 2 1 -1 -2 -2 -2 -2 -2 -2 -3
8 8 7 8 12 13 15 15 15 12 11 10 9 9 7 7 7 6 6 6 6 6 6 5 5 4 4 3 3 2 2 1 1 0 0 0 -1 -2 -2 -2 -2 -2 -3 -3
4 4 7 12 14 14 13 13 12 11 9 9 9 8 7 7 6 6 6 6 6 6 5 5 4 3 3 2 2 1 1 0 0 -0 -0 -1 -2 -3 -2 -2 -2 -2 -3 -3
5 4 8 12 14 13 12 11 10 8 8 8 8 9 6 6 6 6 6 6 6 5 5 4 4 3 2 2 1 0 -0 -0 -1 -2 -2 -3 -3 -3 -2 -3 -2 -3 -3 -4
2 4 4 9 13 14 13 7 9 8 7 7 7 2 5 7 6 6 6 6 5 5 5 4 3 2 2 1 0 -0 -1 -1 -2 -2 -2 -3 -3 -2 -2 -3 -3 -3 -4 -4
4 2 5 9 13 13 7 7 8 7 7 7 5 6 6 6 6 6 6 6 5 5 4 3 2 2 1 0 -0 -1 -1 -2 -2 -3 -3 -2 -2 -2 -2 -3 -3 -4 -4 -5
5 5 5 12 12 9 8 8 8 7 6 6 6 6 6 6 6 6 6 5 5 4 3 3 2 1 0 -0 -1 -1 -2 -2 -3 -3 -3 -3 -3 -3 -3 -3 -4 -4 -5 -6
6 5 10 13 12 10 9 8 7 7 6 6 6 6 6 6 6 5 5 4 4 3 2 2 1 1 -0 -1 -1 -2 -2 -3 -4 -4 -3 -4 -3 -3 -4 -4 -4 -5 -6 -7
7 11 13 11 11 10 9 8 7 6 6 6 6 6 6 5 4 4 3 3 2 2 1 1 0 -0 -1 -1 -2 -2 -3 -4 -4 -4 -4 -4 -4 -4 -4 -5 -5 -6 -7 -8
7 11 11 9 9 7 7 7 6 6 6 6 6 5 5 4 3 3 2 2 1 1 0 0 -1 -1 -1 -2 -3 -3 -3 -4 -4 -4 -5 -5 -5 -5 -5 -5 -6 -7 -7 -8
6 11 10 8 8 7 7 7 7 6 6 6 5 4 4 3 2 2 2 1 0 -0 -1 -1 -2 -2 -2 -3 -3 -4 -4 -4 -4 -5 -5 -5 -5 -6 -6 -6 -7 -8 -8 -9
11 9 10 8 7 7 7 7 7 6 5 5 4 3 3 3 2 1 0 -1 -1 -2 -2 -2 -3 -3 -4 -4 -4 -4 -4 -4 -5 -5 -6 -6 -6 -7 -7 -7 -8 -8 -8 -9
10 9 7 7 7 6 7 6 6 5 4 4 3 3 3 1 0 -0 -1 -1 -2 -2 -2 -3 -3 -5 -5 -5 -5 -5 -5 -5 -5 -6 -6 -6 -7 -8 -8 -8 -8 -8 -9 -9
8 8 7 7 6 6 6 5 5 4 4 3 3 2 1 -0 -1 -1 -1 -2 -2 -2 -2 -4 -5 -5 -5 -5 -5 -5 -6 -6 -5 -6 -6 -7 -8 -8 -8 -8 -8 -9 -9 -9
7 7 7 6 6 5 5 4 4 3 3 2 1 0 -0 -1 -1 -1 -2 -2 -3 -2 -2 -4 -6 -5 -5 -5 -5 -6 -6 -6 -6 -7 -7 -8 -8 -8 -8 -8 -9 -9 -9 -9
6 6 6 6 5 4 4 3 3 2 2 1 0 -1 -1 -1 -2 -2 -1 -2 -2 -2 -4 -5 -5 -5 -5 -5 -6 -6 -7 -7 -7 -7 -7 -8 -8 -8 -8 -9 -9 -9 -9 -9
6 6 5 5 4 4 3 2 2 1 1 0 -1 -1 -1 -2 -2 -2 -2 -2 -2 -3 -4 -5 -5 -5 -5 -5 -6 -6 -7 -7 -7 -8 -8 -8 -8 -8 -9 -9 -9 -9 -9 -9
5 4 4 3 3 2 2 1 1 0 -0 -1 -1 -1 -2 -2 -2 -2 -2 -5 -6 -6 -4 -6 -5 -5 -5 -5 -6 -6 -6 -7 -8 -8 -9 -8 -8 -8 -9 -9 -9 -9 -9 -9
3 3 2 2 1 1 1 1 0 -0 -0 -1 -1 -2 -2 -2 -3 -3 -4 -6 -6 -6 -6 -5 -5 -5 -5 -5 -6 -6 -6 -7 -8 -9 -9 -8 -8 -8 -8 -9 -9 -9 -9 -9
2 2 1 1 2 1 1 0 -0 -0 -1 -1 -2 -2 -2 -2 -3 -5 -6 -6 -5 -5 -5 -5 -6 -5 -5 -6 -6 -6 -7 -7 -8 -8 -9 -8 -8 -8 -8 -9 -9 -9 -9 -9
2 1 1 1 1 1 0 -0 -1 -1 -1 -1 -2 -2 -2 -3 -4 -5 -5 -5 -6 -6 -6 -6 -6 -6 -6 -6 -6 -7 -7 -7 -7 -8 -9 -9 -9 -9 -8 -9 -9 -10 -10 -10
1 1 0 0 -0 -0 -0 -1 -1 -1 -2 -2 -2 -2 -3 -3 -4 -5 -5 -5 -6 -7 -7 -6 -6 -6 -6 -6 -6 -7 -6 -7 -7 -7 -8 -9 -9 -9 -9 -9 -9 -10 -10 -10
0 -0 -0 -1 -1 -1 -1 -1 -2 -2 -2 -2 -2 -3 -3 -4 -4 -5 -6 -6 -6 -7 -7 -7 -7 -6 -6 -6 -6 -6 -6 -6 -7 -7 -8 -8 -9 -9 -9 -9 -9 -9 -10 -10
-0 -1 -1 -1 -1 -1 -2 -2 -2 -2 -2 -2 -2 -3 -4 -5 -5 -6 -6 -7 -6 -7 -7 -7 -7 -6 -6 -6 -7 -7 -6 -6 -6 -6 -7 -8 -8 -9 -9 -9 -9 -9 -9 -10
-1 -1 -2 -2 -2 -2 -2 -2 -2 -2 -2 -3 -3 -4 -4 -5 -6 -7 -7 -7 -7 -7 -7 -7 -7 -6 -6 -6 -6 -6 -6 -6 -6 -6 -7 -7 -8 -9 -9 -9 -10 -10 -10 -10
-2 -2 -2 -2 -2 -2 -2 -3 -3 -3 -4 -4 -5 -5 -6 -7 -7 -7 -7 -7 -7 -7 -7 -7 -7 -7 -7 -7 -7 -6 -6 -6 -6 -6 -7 -7 -8 -8 -9 -9 -9 -10 -10 -10

GFSNGP_850_temp_006.txt.gz
Temp
12 12 13 14 14 13 13 11 10 11 11 10 9 8 9 8 8 8 8 7 7 6 6 6 5 5 5 5 4 4 3 3 2 1 1 0 -0 -0 -1 -1 -1 -2 -2 -3
12 10 9 12 11 11 12 13 13 10 9 9 9 9 8 7 7 7 6 6 6 6 5 5 5 5 4 4 3 3 2 2 1 0 -0 -1 -1 -2 -2 -2 -2 -3 -4 -3
7 5 6 7 12 13 14 11 13 10 8 8 7 7 7 7 7 7 6 6 6 6 5 5 5 4 4 3 3 2 1 1 1 -0 -1 -2 -2 -2 -2 -3 -3 -3 -3 -3
4 3 7 11 12 12 9 10 8 8 7 8 7 7 7 7 7 6 6 6 6 5 5 5 4 4 3 2 2 2 1 1 -0 -1 -1 -2 -3 -3 -3 -3 -3 -3 -3 -3
4 3 7 11 13 12 12 9 8 7 7 8 7 6 6 6 6 6 6 6 6 5 5 4 4 3 3 2 2 1 1 -0 -1 -2 -2 -3 -3 -3 -3 -3 -3 -3 -3 -4
3 4 5 8 12 13 12 7 8 8 7 7 7 2 4 6 6 6 6 6 5 5 4 4 3 3 2 1 1 0 -0 -1 -2 -2 -3 -3 -3 -3 -3 -3 -3 -4 -4 -5
2 0 4 7 11 12 8 8 8 8 7 7 4 7 7 6 6 6 6 5 5 4 3 2 2 2 1 0 0 -1 -1 -2 -2 -3 -4 -3 -3 -3 -4 -4 -4 -4 -5 -6
1 1 5 10 11 8 8 9 9 8 7 7 6 6 6 6 6 5 5 4 4 3 2 2 1 1 0 -0 -1 -2 -2 -2 -3 -4 -4 -4 -4 -4 -4 -4 -5 -5 -6 -6
6 6 9 12 13 13 12 11 8 8 7 6 6 6 6 5 5 5 4 3 3 2 1 1 0 -0 -1 -1 -2 -2 -2 -3 -3 -4 -4 -4 -4 -4 -4 -5 -5 -6 -6 -7
7 10 9 12 11 11 10 10 9 7 7 6 6 6 5 5 4 4 3 3 2 1 1 0 -0 -1 -2 -2 -2 -3 -3 -3 -4 -4 -4 -4 -5 -5 -5 -6 -6 -6 -7 -8
6 9 9 10 10 10 8 8 7 7 6 6 5 5 5 4 3 3 2 2 1 0 -0 -1 -1 -2 -2 -3 -4 -4 -4 -4 -4 -4 -5 -5 -5 -6 -6 -6 -7 -7 -8 -8
8 11 10 10 10 9 8 7 7 6 5 5 5 4 3 3 3 2 2 1 0 -0 -1 -1 -2 -2 -3 -4 -5 -5 -5 -5 -5 -5 -5 -6 -6 -7 -7 -7 -8 -8 -8 -9
11 11 11 11 9 7 7 7 7 6 5 5 4 3 3 3 2 2 1 0 -1 -1 -1 -2 -2 -3 -4 -5 -6 -5 -5 -5 -5 -6 -6 -6 -7 -7 -8 -8 -8 -8 -8 -9
11 10 8 8 7 7 6 6 6 5 5 4 3 3 3 2 2 1 -0 -1 -2 -2 -2 -2 -3 -3 -5 -5 -6 -5 -5 -5 -6 -6 -6 -6 -7 -8 -8 -8 -8 -8 -9 -9
10 9 9 8 7 6 5 5 4 4 3 3 3 3 3 1 0 -0 -1 -2 -2 -2 -2 -2 -3 -4 -6 -6 -5 -6 -6 -6 -6 -6 -6 -7 -7 -8 -8 -8 -9 -9 -9 -9
8 7 7 6 6 5 4 4 4 4 3 3 3 2 1 -0 -1 -1 -2 -2 -2 -2 -2 -2 -4 -5 -6 -6 -6 -6 -6 -7 -6 -7 -7 -7 -8 -8 -8 -9 -9 -9 -9 -9
7 6 6 5 3 2 4 3 3 3 3 2 1 0 -0 -1 -1 -2 -2 -2 -2 -3 -3 -4 -6 -6 -6 -6 -6 -6 -7 -7 -7 -7 -8 -8 -8 -8 -8 -9 -9 -9 -9 -9
6 5 3 1 2 3 2 3 2 2 2 1 0 -1 -1 -2 -2 -2 -3 -2 -2 -3 -6 -6 -6 -6 -6 -5 -6 -5 -7 -7 -7 -8 -8 -9 -9 -8 -8 -9 -9 -9 -9 -9
4 2 0 2 1 2 2 2 2 2 1 0 -1 -1 -2 -2 -2 -2 -3 -3 -4 -5 -5 -6 -6 -6 -6 -6 -6 -6 -6 -6 -7 -7 -8 -9 -9 -8 -8 -9 -9 -9 -9 -9
0 1 1 1 2 2 2 1 1 1 -0 -1 -1 -1 -2 -2 -2 -3 -3 -4 -5 -5 -6 -6 -6 -6 -6 -6 -6 -6 -6 -6 -7 -7 -8 -9 -9 -9 -9 -9 -9 -9 -9 -9
2 2 2 2 2 1 1 0 0 -0 -1 -1 -2 -2 -2 -2 -2 -3 -3 -4 -4 -5 -6 -7 -7 -7 -7 -7 -7 -6 -6 -7 -7 -7 -8 -9 -9 -9 -9 -9 -9 -9 -9 -9
2 2 1 1 0 -0 -0 -0 -1 -1 -1 -1 -2 -2 -2 -2 -2 -3 -4 -4 -4 -6 -6 -7 -7 -7 -7 -7 -6 -6 -6 -7 -7 -7 -7 -8 -8 -8 -9 -9 -9 -9 -10 -10
1 0 -0 -0 -0 -1 -1 -1 -1 -2 -2 -2 -2 -2 -2 -3 -3 -4 -4 -4 -5 -6 -6 -7 -7 -7 -7 -7 -7 -6 -7 -7 -7 -7 -7 -7 -8 -8 -9 -9 -9 -9 -10 -10
-0 -0 -1 -1 -1 -1 -2 -2 -2 -2 -2 -2 -3 -3 -3 -3 -4 -4 -5 -6 -6 -7 -7 -7 -7 -7 -7 -7 -7 -6 -6 -6 -7 -7 -6 -7 -7 -7 -8 -9 -9 -9 -9 -9
-1 -1 -1 -2 -2 -2 -2 -2 -2 -2 -2 -2 -3 -3 -4 -4 -5 -5 -7 -7 -7 -7 -7 -7 -7 -7 -7 -7 -7 -7 -6 -6 -6 -6 -6 -6 -6 -7 -7 -8 -9 -9 -9 -9
-2 -2 -2 -2 -2 -2 -2 -2 -2 -3 -3 -3 -3 -5 -5 -5 -6 -7 -7 -7 -7 -8 -8 -8 -7 -7 -7 -7 -7 -7 -7 -7 -7 -7 -7 -7 -6 -7 -7 -7 -8 -9 -10 -10
-2 -2 -2 -2 -2 -2 -3 -3 -3 -3 -4 -4 -5 -5 -5 -5 -6 -7 -7 -7 -8 -8 -9 -9 -9 -9 -8 -8 -8 -8 -9 -9 -8 -8 -7 -7 -7 -7 -7 -7 -8 -9 -9 -10

GFSNGP_850_temp_009.txt.gz
Temp
11 10 12 13 14 11 11 10 9 10 9 9 7 7 7 8 8 7 7 7 7 6 6 6 5 5 5 4 4 4 3 3 2 1 0 -1 -1 -1 -2 -3 -3 -3 -3 -3
10 8 8 11 11 10 10 11 10 10 9 8 9 8 7 8 7 7 7 7 7 6 6 5 5 5 4 4 4 3 3 2 1 0 -1 -1 -2 -3 -3 -3 -3 -3 -4 -4
7 5 6 7 9 11 12 11 10 8 8 7 6 7 7 7 7 7 7 7 6 6 6 5 5 4 4 4 3 2 1 1 -0 -1 -1 -2 -2 -3 -3 -4 -4 -4 -3 -3
3 3 7 11 10 10 11 10 8 7 7 7 7 8 8 8 8 7 7 6 6 6 5 5 4 4 3 2 2 1 0 -0 -1 -2 -2 -2 -3 -3 -3 -3 -4 -3 -3 -4
3 3 7 11 10 9 10 9 7 6 6 8 8 7 7 7 7 6 6 6 6 5 5 4 3 2 2 2 1 0 -0 -1 -2 -2 -3 -3 -3 -3 -3 -3 -3 -3 -4 -4
2 4 6 9 10 12 11 7 8 8 6 6 5 2 4 7 6 6 6 6 5 5 4 3 2 2 2 1 0 -0 -1 -2 -2 -3 -3 -4 -4 -3 -3 -4 -4 -4 -6 -5
-1 0 4 6 10 12 9 8 8 9 8 7 4 6 7 7 6 6 5 5 5 4 3 2 2 1 1 0 -0 -1 -2 -2 -3 -3 -3 -4 -4 -4 -4 -4 -4 -5 -6 -6
1 1 7 9 9 8 9 11 12 10 9 8 8 7 6 6 5 5 5 4 4 3 3 2 1 0 -0 -1 -2 -2 -3 -3 -3 -3 -4 -4 -4 -4 -4 -4 -5 -6 -6 -7
5 6 9 10 11 13 12 13 11 10 9 8 7 6 6 5 5 5 4 3 3 3 2 1 0 -0 -1 -1 -2 -3 -3 -4 -4 -4 -4 -4 -4 -5 -5 -5 -6 -7 -7 -7
6 9 8 11 12 11 12 12 12 10 9 8 7 6 5 5 4 3 3 3 2 2 1 0 -0 -1 -2 -2 -2 -3 -4 -4 -4 -5 -5 -4 -5 -5 -6 -6 -7 -7 -8 -8
5 7 9 10 11 12 12 11 10 9 8 7 6 5 5 4 4 3 2 2 1 1 0 -0 -1 -2 -2 -3 -3 -4 -5 -5 -5 -5 -6 -5 -6 -6 -7 -7 -7 -8 -8 -9
6 11 11 12 13 12 11 10 9 8 6 6 5 5 4 3 3 2 2 1 0 -0 -1 -1 -1 -1 -2 -3 -4 -5 -6 -5 -5 -5 -6 -6 -6 -7 -7 -8 -8 -8 -9 -9
11 12 11 11 11 11 10 8 7 6 6 5 4 4 3 3 2 2 1 0 -0 -1 -1 -2 -1 -1 -2 -4 -5 -6 -6 -5 -5 -5 -6 -6 -6 -7 -7 -8 -8 -9 -9 -9
12 10 9 10 10 9 7 7 6 6 4 3 3 1 2 2 1 1 0 -0 -1 -2 -2 -2 -2 -1 -3 -6 -6 -6 -6 -6 -6 -6 -6 -6 -7 -7 -8 -8 -9 -9 -9 -9
11 10 10 9 8 7 6 6 4 3 2 2 0 2 2 1 1 1 -0 -1 -2 -2 -2 -2 -2 -3 -5 -6 -6 -6 -6 -6 -6 -7 -7 -7 -7 -8 -8 -8 -9 -9 -9 -9
10 8 7 8 6 4 4 3 2 0 1 -0 1 1 1 1 0 -0 -1 -2 -2 -2 -2 -3 -3 -5 -6 -6 -6 -6 -6 -6 -7 -7 -7 -7 -7 -8 -8 -9 -9 -9 -9 -9
8 5 5 4 2 2 0 -0 -0 1 -0 2 1 1 1 0 -1 -1 -2 -2 -2 -3 -3 -4 -5 -7 -7 -6 -6 -6 -6 -7 -7 -7 -8 -8 -8 -9 -9 -9 -9 -9 -9 -9
6 5 3 3 2 -0 -1 0 1 1 1 1 1 1 -0 -1 -1 -2 -2 -2 -3 -3 -4 -5 -6 -6 -7 -6 -6 -6 -6 -6 -7 -7 -8 -8 -8 -9 -9 -9 -8 -9 -9 -9
2 1 -0 -1 -1 0 1 1 1 1 1 1 0 -1 -1 -1 -2 -2 -2 -3 -3 -3 -4 -5 -6 -7 -7 -7 -7 -7 -7 -6 -6 -7 -7 -7 -8 -9 -9 -9 -9 -9 -9 -9
-0 -1 -0 0 1 1 1 1 1 1 0 -0 -1 -1 -1 -1 -2 -2 -2 -3 -3 -4 -4 -6 -7 -7 -7 -7 -7 -7 -7 -7 -6 -6 -7 -7 -8 -8 -8 -9 -9 -9 -9 -9
0 1 1 1 1 1 0 -0 -0 -1 -1 -1 -1 -1 -2 -2 -2 -2 -3 -3 -3 -4 -5 -6 -6 -7 -7 -7 -7 -7 -7 -7 -7 -7 -7 -8 -8 -8 -8 -8 -9 -9 -9 -9
-0 -0 -0 -1 -1 -1 -1 -1 -1 -1 -1 -2 -2 -2 -2 -2 -2 -2 -3 -3 -4 -5 -5 -6 -7 -7 -7 -8 -7 -7 -7 -7 -7 -7 -7 -7 -7 -8 -8 -8 -8 -9 -9 -9
-0 -1 -1 -0 -0 -1 -1 -1 -2 -2 -2 -2 -2 -2 -3 -3 -3 -3 -3 -4 -5 -6 -7 -7 -7 -7 -7 -7 -7 -7 -7 -7 -7 -6 -7 -7 -7 -7 -7 -7 -8 -8 -9 -9
-1 -1 -1 -1 -2 -2 -2 -2 -2 -2 -2 -2 -2 -2 -3 -3 -3 -4 -5 -5 -7 -7 -7 -8 -8 -8 -7 -7 -7 -7 -7 -7 -7 -7 -7 -7 -7 -7 -7 -7 -7 -7 -8 -9
-2 -2 -2 -2 -2 -2 -2 -2 -2 -2 -2 -3 -3 -3 -3 -4 -5 -5 -5 -6 -7 -7 -7 -8 -8 -8 -8 -8 -8 -8 -8 -8 -8 -8 -8 -8 -8 -7 -7 -7 -7 -7 -7 -8
-2 -2 -2 -3 -3 -3 -3 -3 -3 -3 -3 -3 -4 -4 -4 -5 -6 -6 -6 -6 -7 -7 -8 -8 -8 -9 -9 -9 -8 -8 -8 -8 -9 -9 -9 -9 -9 -9 -8 -8 -7 -7 -7 -8
-2 -2 -2 -2 -3 -3 -4 -4 -4 -4 -5 -5 -5 -5 -5 -5 -6 -7 -7 -7 -7 -8 -8 -8 -9 -9 -8 -8 -8 -8 -8 -8 -8 -8 -8 -8 -8 -9 -9 -8 -8 -8 -8 -8

GFSNGP_850_temp_012.txt.gz
Temp
9 9 11 12 13 10 10 10 10 10 8 10 8 6 7 7 7 7 7 7 7 7 6 6 5 5 5 5 4 3 3 2 1 1 0 -1 -1 -2 -2 -3 -3 -3 -3 -4
10 7 7 11 11 10 10 10 8 9 9 8 8 9 7 7 7 7 7 7 7 6 6 6 5 5 5 4 3 3 2 1 1 -0 -1 -1 -2 -2 -3 -3 -4 -4 -4 -4
7 5 5 7 9 9 9 9 9 8 10 6 6 6 7 7 8 8 8 7 7 6 6 6 6 5 4 3 3 2 2 1 -0 -1 -2 -2 -3 -3 -3 -4 -4 -4 -4 -4
3 2 7 11 9 10 10 10 8 8 7 7 7 7 8 9 9 8 8 7 6 6 6 5 5 4 3 2 2 2 1 -0 -1 -2 -2 -3 -3 -3 -4 -3 -3 -3 -4 -4
3 3 7 11 9 8 9 10 7 7 6 7 7 8 8 8 8 8 7 7 6 6 5 5 4 3 2 2 2 1 -0 -1 -2 -2 -3 -3 -3 -4 -4 -3 -3 -4 -4 -5
-1 4 6 9 9 11 11 7 8 8 6 6 6 3 7 10 9 7 7 6 5 5 5 4 3 2 2 1 0 -0 -1 -2 -2 -3 -3 -4 -4 -4 -4 -4 -4 -4 -5 -5
-1 0 4 6 10 11 9 9 8 10 9 7 5 8 9 9 8 6 6 5 5 5 4 3 3 2 1 0 -0 -1 -1 -2 -3 -3 -4 -4 -4 -5 -4 -4 -4 -5 -5 -6
-0 -0 7 9 10 8 9 12 12 11 11 10 10 8 8 8 6 5 5 5 4 4 3 2 1 1 0 -0 -1 -1 -2 -2 -3 -4 -4 -4 -5 -5 -5 -5 -5 -5 -6 -7
5 5 8 10 9 12 11 12 12 12 12 11 9 7 7 6 6 5 4 4 3 3 2 2 1 0 -1 -1 -1 -2 -2 -3 -4 -4 -5 -5 -5 -5 -5 -6 -6 -6 -7 -7
6 9 7 11 12 12 11 12 12 11 12 11 9 7 6 5 4 4 3 3 3 2 2 1 -0 -1 -1 -1 -2 -2 -3 -4 -5 -5 -5 -5 -5 -5 -6 -6 -7 -7 -7 -8
4 7 9 12 12 13 12 11 11 11 10 9 8 7 6 5 4 3 3 3 2 1 1 -0 -1 -1 -2 -2 -2 -3 -4 -5 -5 -5 -5 -6 -6 -6 -7 -7 -7 -8 -8 -9
5 12 10 12 13 12 12 12 12 9 8 7 6 6 4 3 2 1 2 2 1 0 -0 -1 -1 -2 -2 -2 -3 -4 -5 -6 -6 -5 -6 -6 -6 -7 -7 -7 -8 -9 -9 -9
11 13 12 11 11 11 11 10 10 8 7 6 5 4 2 1 1 1 1 1 0 -0 -1 -1 -2 -2 -2 -3 -5 -6 -6 -6 -6 -6 -6 -6 -6 -7 -7 -8 -8 -9 -9 -9
12 10 9 11 10 10 10 9 7 6 5 4 2 -0 -0 1 1 1 1 -0 -0 -1 -2 -2 -2 -2 -3 -4 -6 -6 -6 -6 -6 -6 -6 -6 -7 -7 -7 -8 -9 -9 -9 -9
10 9 9 8 8 7 6 5 4 2 1 -0 -1 0 1 1 1 0 -1 -0 -1 -2 -2 -2 -2 -2 -4 -5 -6 -6 -6 -6 -6 -6 -7 -7 -7 -7 -8 -8 -9 -9 -9 -9
8 8 7 6 4 3 3 2 2 -0 -1 -0 -0 1 1 0 -1 -1 -1 -1 -1 -2 -2 -2 -3 -4 -5 -6 -7 -7 -6 -6 -6 -6 -7 -7 -7 -8 -8 -9 -9 -9 -9 -9
5 4 4 2 1 1 0 -0 -1 -1 -0 0 1 1 0 -0 -1 -1 -1 -1 -2 -2 -3 -3 -3 -4 -5 -6 -7 -7 -7 -7 -6 -6 -7 -7 -8 -8 -8 -9 -9 -9 -9 -9
4 2 1 0 -0 -1 -1 -1 0 1 1 1 0 0 -0 -1 -1 -1 -2 -2 -2 -3 -3 -3 -4 -5 -6 -7 -7 -8 -7 -7 -7 -7 -7 -7 -7 -8 -8 -9 -9 -9 -9 -9
-0 -1 -1 -1 -1 -1 -1 1 1 1 1 0 0 -0 -1 -1 -1 -2 -2 -2 -2 -3 -3 -4 -4 -5 -6 -7 -7 -8 -7 -7 -7 -7 -7 -7 -7 -7 -7 -8 -9 -9 -9 -9
-2 -2 -1 -1 -1 0 1 1 1 0 0 -0 -1 -1 -1 -1 -2 -2 -2 -2 -2 -3 -4 -4 -5 -5 -6 -7 -7 -8 -8 -7 -7 -7 -7 -7 -7 -7 -8 -8 -8 -8 -9 -9
-1 -0 0 0 0 0 -0 -0 -1 -1 -1 -1 -2 -2 -2 -2 -2 -2 -2 -2 -2 -3 -4 -5 -5 -6 -7 -7 -7 -7 -8 -8 -7 -7 -7 -7 -7 -7 -8 -8 -8 -8 -8 -9
-1 -1 -1 -1 -1 -1 -1 -1 -2 -2 -2 -2 -2 -2 -2 -2 -2 -2 -3 -3 -3 -4 -5 -6 -6 -7 -8 -8 -7 -8 -7 -8 -7 -7 -7 -7 -7 -7 -7 -7 -7 -7 -7 -8
-1 -2 -2 -2 -2 -2 -2 -2 -2 -2 -2 -2 -2 -2 -2 -3 -3 -3 -3 -3 -4 -5 -6 -7 -8 -8 -8 -8 -8 -8 -8 -8 -8 -8 -8 -8 -8 -7 -7 -7 -7 -7 -7 -7
-2 -2 -2 -2 -2 -2 -2 -2 -2 -2 -2 -3 -3 -3 -3 -4 -4 -4 -4 -5 -6 -6 -7 -7 -7 -8 -8 -9 -9 -9 -9 -9 -8 -9 -9 -9 -8 -8 -8 -8 -8 -8 -7 -7
-2 -2 -2 -2 -2 -3 -3 -3 -3 -3 -3 -3 -4 -4 -4 -5 -5 -5 -5 -6 -6 -6 -7 -7 -8 -8 -8 -9 -9 -9 -9 -9 -8 -8 -8 -8 -9 -9 -9 -10 -9 -9 -9 -8
-2 -3 -3 -3 -3 -4 -4 -4 -4 -5 -6 -7 -6 -6 -6 -5 -6 -6 -6 -6 -7 -7 -7 -7 -8 -8 -9 -9 -9 -9 -9 -9 -9 -9 -9 -9 -9 -8 -8 -8 -8 -10 -9 -9
-3 -3 -3 -3 -3 -4 -5 -6 -6 -7 -7 -9 -9 -8 -8 -7 -7 -7 -7 -7 -7 -8 -8 -8 -8 -9 -9 -9 -10 -10 -10 -10 -10 -9 -9 -9 -9 -9 -8 -8 -8 -8 -9 -10

GFSNGP_850_temp_015.txt.gz
Temp
9 9 10 12 12 11 13 12 13 13 11 13 13 12 9 7 7 7 7 7 8 8 7 7 6 6 5 5 4 4 3 3 2 1 -0 -0 -1 -2 -2 -3 -3 -3 -4 -4
9 8 8 11 11 11 11 11 11 11 12 12 10 8 7 7 6 6 7 8 8 7 7 7 6 6 5 4 4 3 3 2 1 0 -0 -1 -2 -2 -2 -3 -3 -4 -4 -4
10 6 8 10 10 11 11 10 12 12 14 9 9 8 8 7 6 7 8 8 8 8 7 6 6 5 5 4 4 3 2 2 1 -0 -1 -2 -2 -3 -3 -3 -3 -4 -4 -4
8 5 11 13 10 10 11 11 11 10 10 9 9 9 9 8 9 8 8 8 7 7 6 6 5 5 4 4 3 3 2 1 -0 -1 -2 -2 -3 -3 -3 -4 -4 -3 -4 -4
9 9 9 13 10 10 10 13 11 11 10 7 7 7 8 9 9 9 9 8 7 6 6 5 5 5 4 3 3 2 1 0 -0 -1 -2 -3 -3 -4 -4 -4 -4 -4 -4 -5
5 9 10 12 10 10 11 11 11 10 8 6 7 9 12 11 9 8 8 7 6 6 5 5 4 4 3 2 2 1 0 -0 -1 -2 -3 -3 -4 -4 -4 -4 -4 -4 -5 -5
2 8 8 9 10 10 11 12 9 9 10 6 8 11 12 11 9 8 7 6 5 4 4 4 3 3 2 2 1 -0 -1 -1 -2 -2 -2 -3 -4 -4 -4 -4 -5 -5 -5 -6
2 6 10 8 10 10 11 12 12 11 12 11 12 11 9 9 9 7 6 5 5 4 4 3 3 2 2 1 -0 -1 -1 -2 -2 -2 -3 -4 -4 -5 -4 -5 -5 -5 -6 -6
8 9 9 10 10 12 11 11 12 11 12 11 10 8 8 8 7 6 5 4 4 3 3 2 2 1 0 -0 -1 -1 -1 -2 -2 -3 -4 -5 -5 -5 -5 -5 -6 -6 -7 -7
7 10 7 10 11 12 12 11 12 11 11 10 10 8 7 6 5 4 3 3 2 2 2 2 1 0 -0 -1 -1 -1 -2 -2 -3 -4 -4 -5 -5 -5 -6 -6 -6 -7 -7 -8
6 8 9 12 13 12 12 12 12 11 10 10 9 8 6 5 4 3 2 0 1 2 2 1 0 -1 -1 -1 -1 -2 -3 -4 -6 -6 -6 -5 -6 -6 -6 -6 -7 -7 -8 -8
9 13 11 12 12 11 11 11 11 10 10 8 7 6 5 3 2 0 -1 1 1 1 0 -0 -1 -1 -2 -1 -2 -3 -4 -6 -6 -7 -6 -6 -6 -6 -6 -7 -7 -8 -8 -9
11 10 10 10 10 10 9 9 9 8 7 6 4 4 2 0 -0 -0 0 1 1 0 -0 -1 -1 -2 -1 -2 -3 -4 -5 -6 -6 -6 -6 -6 -6 -6 -7 -7 -7 -8 -8 -9
8 8 9 9 8 8 8 7 6 5 4 3 1 -0 -0 -0 -0 1 1 0 -0 -1 -1 -2 -2 -2 -2 -3 -4 -5 -6 -6 -6 -6 -6 -6 -7 -7 -7 -7 -7 -8 -8 -9
7 7 6 6 5 5 4 3 3 0 -0 -1 -1 -2 -2 -1 1 1 -0 -0 -1 -1 -2 -2 -2 -2 -3 -4 -5 -6 -6 -6 -6 -6 -6 -6 -7 -7 -7 -7 -8 -8 -9 -9
3 4 4 3 1 1 1 -0 -0 -1 -1 -2 -2 -1 0 -0 -0 -0 -1 -1 -1 -2 -2 -2 -2 -3 -3 -5 -5 -6 -7 -7 -7 -7 -7 -7 -7 -7 -7 -8 -8 -8 -9 -9
3 0 0 -1 -1 -1 -1 -2 -2 -2 -1 -0 1 0 -0 -0 -0 -1 -1 -2 -2 -2 -2 -3 -3 -3 -4 -5 -5 -7 -7 -8 -7 -7 -7 -7 -7 -7 -7 -8 -8 -9 -9 -9
2 -0 -1 -1 -1 -2 -2 -1 -0 1 1 0 0 -0 -0 -1 -1 -2 -2 -2 -2 -2 -2 -3 -3 -4 -4 -5 -6 -7 -7 -7 -7 -7 -7 -7 -7 -7 -7 -8 -8 -8 -8 -9
-1 -1 -1 -1 -1 -0 0 1 1 1 0 -0 -0 -1 -1 -1 -2 -2 -2 -2 -2 -2 -3 -3 -4 -4 -5 -5 -6 -6 -7 -7 -8 -8 -7 -7 -7 -7 -7 -7 -7 -8 -8 -8
-0 -0 -0 -0 0 0 -0 -1 -1 -1 -1 -1 -1 -1 -1 -2 -2 -2 -2 -2 -2 -3 -3 -4 -5 -5 -5 -6 -7 -7 -7 -7 -8 -8 -7 -7 -7 -7 -7 -7 -7 -8 -8 -8
-1 -1 -1 -1 -1 -1 -1 -1 -1 -1 -2 -2 -2 -2 -2 -2 -2 -3 -3 -3 -2 -3 -4 -4 -5 -6 -7 -7 -8 -8 -8 -8 -8 -8 -8 -8 -7 -7 -7 -7 -7 -7 -7 -7
-1 -1 -1 -1 -2 -2 -2 -3 -2 -3 -3 -3 -3 -3 -3 -3 -3 -3 -3 -4 -4 -4 -4 -5 -6 -7 -7 -7 -8 -8 -9 -8 -8 -8 -8 -8 -8 -8 -8 -8 -8 -8 -8 -7
-2 -2 -2 -3 -3 -3 -3 -3 -3 -3 -3 -3 -3 -4 -4 -4 -4 -5 -5 -5 -5 -5 -6 -6 -6 -7 -7 -8 -8 -8 -9 -9 -8 -9 -8 -9 -9 -9 -9 -9 -9 -9 -9 -9
-2 -3 -3 -3 -3 -3 -2 -3 -3 -3 -3 -4 -4 -4 -5 -5 -5 -6 -6 -5 -5 -6 -7 -7 -7 -7 -7 -8 -8 -9 -9 -9 -9 -9 -9 -9 -9 -9 -9 -9 -10 -10 -10 -9
-3 -3 -3 -3 -3 -3 -4 -4 -4 -4 -4 -5 -5 -6 -8 -8 -8 -7 -7 -7 -7 -7 -7 -7 -7 -7 -7 -8 -8 -9 -9 -9 -10 -10 -10 -10 -9 -9 -9 -9 -9 -9 -9 -8
-3 -3 -3 -4 -5 -5 -6 -6 -7 -7 -7 -7 -7 -8 -9 -9 -9 -9 -9 -8 -8 -8 -8 -8 -8 -8 -8 -9 -9 -9 -10 -10 -11 -11 -11 -10 -10 -10 -10 -10 -9 -9 -8 -8
-4 -4 -5 -5 -6 -7 -7 -8 -8 -8 -9 -9 -9 -9 -9 -10 -10 -10 -10 -9 -9 -8 -8 -9 -9 -9 -10 -10 -10 -10 -11 -11 -12 -12 -11 -11 -11 -11 -11 -10 -10 -9 -9 -8